Temperature
13 14 14 14 14 15 15 15 16 18 17 17 16 15 15 15 15 14 13 12 11 9 9 8 8 7 7 6 6 6 5 5 5 4 3 3 2 2 1 1 1 1 0 -1
14 15 15 15 15 15 15 15 16 16 18 19 17 17 16 15 15 14 13 12 11 9 9 8 7 6 6 6 5 5 5 4 4 3 2 2 1 1 1 1 0 -0 -1 -2
13 15 15 14 15 15 15 15 16 15 16 18 17 16 15 15 15 14 13 12 10 9 8 7 7 6 5 5 5 5 4 4 3 2 2 1 1 1 0 -0 -1 -1 -2 -3
13 13 12 15 17 16 16 16 16 16 17 17 16 16 16 16 15 14 13 11 10 9 8 7 6 5 5 4 4 4 3 3 2 1 1 1 0 0 -0 -1 -1 -2 -2 -3
12 12 13 16 16 16 15 15 16 16 16 14 14 13 12 14 14 13 12 11 9 8 7 6 5 5 4 4 4 3 3 2 1 1 1 0 -0 -0 -1 -1 -2 -2 -3 -4
11 12 12 15 15 16 16 15 16 16 15 12 12 11 10 11 12 11 10 9 8 7 6 5 4 4 4 4 3 2 2 1 1 0 0 -0 -1 -1 -1 -2 -2 -3 -4 -5
11 11 12 13 14 14 14 13 13 15 14 12 12 12 10 10 9 9 9 8 7 6 5 4 4 4 3 3 2 2 1 1 0 -0 -0 -1 -1 -1 -2 -3 -3 -4 -5 -5
10 10 11 13 13 13 12 12 13 13 12 10 9 8 8 8 8 8 7 6 6 5 4 4 3 3 3 2 1 1 1 0 0 -0 -1 -1 -2 -2 -3 -4 -4 -5 -6 -6
11 11 12 13 12 12 13 12 12 11 10 9 7 6 6 6 6 6 6 5 5 5 4 3 3 2 2 1 1 1 0 0 -0 -1 -1 -2 -2 -3 -4 -4 -5 -6 -6 -7
12 11 11 12 11 12 12 11 11 10 9 9 7 6 6 6 5 5 5 5 4 4 4 3 2 2 1 1 0 0 0 -0 -1 -1 -2 -2 -3 -4 -5 -5 -6 -7 -7 -8
12 10 10 10 11 11 11 10 10 9 9 9 8 7 7 6 6 5 5 4 4 3 3 2 2 1 1 0 0 0 -0 -1 -1 -2 -2 -3 -4 -4 -5 -6 -7 -8 -8 -8
11 11 10 9 10 10 10 9 9 9 8 8 8 7 7 6 6 5 4 4 3 2 2 1 1 1 0 0 -0 -0 -1 -1 -2 -2 -3 -4 -4 -5 -5 -6 -7 -8 -8 -9
12 12 12 10 9 9 9 8 9 9 8 7 7 7 6 6 5 4 4 3 2 2 1 1 0 0 0 -0 -1 -1 -1 -2 -2 -3 -4 -5 -5 -6 -6 -7 -8 -8 -9 -9
11 10 8 8 8 8 8 8 8 7 7 7 6 6 6 5 4 4 3 2 2 1 1 0 0 -0 -0 -1 -1 -2 -2 -3 -3 -4 -5 -5 -6 -7 -8 -8 -9 -9 -9 -10
9 9 8 8 7 7 8 8 7 7 6 6 6 6 5 5 4 3 3 2 1 1 0 0 -0 -1 -1 -1 -2 -2 -3 -3 -4 -5 -5 -6 -7 -8 -9 -9 -9 -10 -10 -10
8 8 8 7 7 7 7 7 7 6 6 6 5 5 4 4 3 3 2 1 1 0 -0 -0 -1 -1 -1 -2 -2 -3 -3 -4 -5 -6 -6 -7 -8 -9 -9 -10 -10 -10 -10 -10
7 5 6 6 6 6 7 7 7 6 6 5 5 5 4 3 3 2 1 1 -0 -0 -1 -1 -1 -2 -2 -3 -3 -4 -4 -5 -5 -6 -7 -8 -9 -9 -10 -10 -10 -10 -11 -11
9 9 8 7 7 6 6 6 6 6 5 5 5 4 3 3 2 1 1 -0 -1 -1 -1 -2 -2 -2 -3 -3 -4 -4 -5 -6 -6 -7 -8 -9 -10 -10 -10 -10 -10 -11 -11 -11
7 7 6 6 6 6 6 6 5 5 5 4 4 3 3 2 1 1 0 -1 -1 -2 -2 -2 -3 -3 -4 -4 -5 -5 -6 -6 -7 -8 -9 -9 -10 -10 -10 -10 -11 -11 -11 -11
5 6 6 6 6 6 5 5 5 4 4 3 3 3 2 1 1 -0 -1 -1 -2 -2 -3 -3 -4 -4 -4 -5 -5 -6 -6 -7 -8 -9 -9 -9 -10 -10 -10 -10 -11 -11 -11 -12
5 5 5 5 5 5 5 4 4 4 3 3 2 2 1 1 -0 -1 -1 -2 -3 -3 -4 -4 -4 -5 -5 -6 -6 -7 -7 -8 -9 -9 -10 -10 -10 -10 -10 -11 -11 -11 -12 -12
5 5 5 5 5 4 4 3 3 3 2 2 1 1 0 -0 -1 -2 -2 -3 -3 -4 -5 -5 -5 -6 -6 -6 -7 -7 -8 -9 -9 -10 -10 -10 -10 -11 -11 -11 -11 -12 -12 -12
4 4 4 4 4 3 3 2 2 2 1 1 0 -0 -1 -1 -2 -3 -3 -4 -5 -5 -5 -6 -6 -6 -7 -7 -7 -8 -9 -9 -10 -10 -10 -10 -11 -11 -11 -11 -12 -12 -12 -12
4 4 3 3 3 3 2 1 1 1 0 -0 -1 -1 -2 -3 -3 -4 -5 -5 -6 -6 -6 -6 -7 -7 -7 -8 -8 -9 -9 -10 -10 -10 -10 -11 -11 -11 -11 -12 -12 -12 -12 -12
3 3 3 2 2 2 1 0 -0 -0 -1 -1 -2 -3 -3 -4 -5 -5 -6 -6 -6 -6 -7 -7 -7 -8 -8 -9 -9 -9 -10 -10 -10 -11 -11 -11 -11 -11 -11 -12 -12 -12 -11 -11
2 2 2 1 1 0 -0 -1 -1 -2 -2 -3 -4 -4 -5 -5 -6 -6 -6 -6 -7 -7 -7 -8 -8 -8 -9 -9 -10 -10 -10 -10 -10 -10 -11 -11 -11 -11 -11 -12 -12 -11 -11 -11
1 1 1 0 -0 -1 -1 -2 -2 -3 -3 -4 -5 -6 -6 -6 -6 -7 -7 -7 -7 -8 -8 -8 -9 -9 -10 -10 -10 -10 -10 -10 -11 -11 -11 -11 -11 -11 -12 -12 -12 -11 -11 -11
Wind_Speed
7 5 11 11 12 12 11 8 4 3 7 10 11 11 11 12 13 15 15 15 14 13 11 11 10 10 11 10 9 9 8 7 6 4 3 3 4 4 5 6 7 7 7 8
4 4 8 10 14 15 14 12 10 8 4 5 10 11 11 13 13 14 15 14 14 13 13 12 11 11 11 10 9 8 8 7 5 2 2 2 4 5 6 7 7 7 8 8
2 4 4 6 13 16 14 13 13 13 10 1 5 10 13 13 13 12 13 13 13 12 12 11 11 11 11 9 9 8 7 6 4 2 2 3 5 6 7 7 7 8 8 8
0 4 5 5 7 12 14 14 14 11 8 6 6 7 7 8 11 11 12 13 12 11 12 12 11 12 11 10 9 8 6 5 3 1 2 4 5 6 6 6 7 8 8 9
1 4 5 5 3 5 9 10 12 13 9 7 12 9 7 7 8 10 11 12 11 12 13 12 13 12 11 9 8 7 5 4 2 1 3 5 6 6 7 7 8 8 9 10
1 2 3 2 2 3 2 5 4 8 10 13 12 7 5 7 12 13 14 13 14 14 15 13 12 11 10 9 7 6 5 3 1 2 3 5 6 6 6 7 8 9 9 9
3 3 5 2 1 1 4 3 6 3 9 12 6 6 13 14 14 14 14 15 15 14 13 11 10 10 9 8 7 6 4 1 1 2 4 5 5 6 7 7 8 9 10 9
5 5 7 3 3 1 2 1 4 8 13 14 15 17 16 14 14 14 14 14 14 13 12 9 9 9 9 8 7 5 3 1 2 3 4 5 6 7 7 8 8 9 9 9
8 7 2 4 5 3 3 5 7 9 15 18 17 15 15 13 12 12 12 11 12 13 11 8 7 8 9 7 6 4 1 1 3 4 5 5 6 7 7 7 7 7 8 9
5 5 6 5 4 3 7 9 10 12 13 15 16 15 14 13 11 10 10 11 11 11 11 8 7 7 8 7 5 2 0 2 3 5 6 6 5 5 6 6 7 8 9 10
4 6 6 4 4 8 11 12 13 12 12 14 16 14 13 12 11 9 9 8 9 9 9 9 8 7 7 6 4 2 2 3 4 5 5 6 6 6 7 6 9 12 8 8
6 9 7 7 9 11 13 12 13 15 13 11 13 13 12 10 9 9 9 8 9 9 9 9 8 7 6 5 3 2 2 3 4 4 5 6 7 7 11 13 19 21 20 19
4 7 7 11 11 11 12 13 12 13 13 12 10 11 11 9 8 8 9 9 9 9 9 8 7 7 6 5 3 1 2 4 4 5 5 6 7 8 11 12 16 18 20 22
10 12 10 8 10 12 14 14 14 13 11 11 10 10 10 9 9 9 9 8 9 9 9 8 7 5 5 4 2 1 3 5 6 5 5 6 7 8 8 11 12 10 14 21
6 6 10 12 12 13 12 14 15 12 11 10 9 9 10 9 9 8 8 9 9 9 8 7 6 4 4 4 1 2 3 4 4 4 5 6 7 8 7 9 10 11 10 13
9 12 14 14 13 11 12 13 14 11 10 9 9 9 9 9 9 9 8 8 8 8 7 6 5 4 4 3 1 2 4 8 8 5 5 6 6 7 8 8 9 10 11 11
12 11 11 13 11 11 10 10 11 10 9 9 9 9 9 10 9 8 7 6 6 6 6 5 4 4 4 2 1 2 4 6 11 8 5 6 7 7 8 8 9 9 10 15
7 9 12 16 14 13 12 11 11 11 9 9 9 9 9 8 8 7 7 6 6 5 4 5 5 4 3 1 1 2 4 5 5 6 6 6 7 7 7 8 9 11 10 13
12 14 14 12 12 14 12 11 10 9 9 9 9 8 7 6 6 7 7 6 5 3 3 5 6 3 1 2 3 2 4 6 6 6 6 11 11 7 8 8 9 10 11 12
15 16 16 14 13 13 13 11 10 10 8 8 9 8 7 6 6 7 6 5 3 4 6 6 4 2 2 3 5 3 5 6 6 6 6 6 7 7 8 9 10 11 12 12
16 16 17 16 14 12 11 10 10 10 8 8 8 8 7 6 6 6 5 4 4 6 6 5 3 2 3 5 7 5 6 6 5 6 6 7 7 8 8 9 11 12 12 12
14 15 15 14 14 12 9 9 9 10 9 8 8 8 8 7 7 6 6 5 5 6 5 3 2 4 6 8 4 5 5 5 5 6 6 6 7 8 9 11 11 12 12 12
12 13 13 12 13 11 10 10 9 9 9 8 8 8 8 7 5 5 5 4 4 6 4 3 5 8 10 6 5 5 6 6 6 6 6 6 7 8 10 11 11 12 11 12
12 12 12 11 12 12 10 8 9 9 10 9 9 8 8 7 7 6 5 6 6 6 4 5 8 9 10 5 5 5 6 6 6 7 7 7 8 9 10 11 11 11 11 12
12 11 11 11 10 9 9 9 10 10 10 9 9 9 8 6 5 4 4 4 6 6 4 6 10 10 7 5 5 6 6 7 8 8 7 7 8 9 10 10 10 11 11 11
10 9 8 8 8 8 7 7 7 7 7 8 7 6 6 5 5 4 4 4 5 6 5 4 5 7 5 6 6 7 7 8 9 8 8 9 9 10 10 10 11 11 11 11
10 9 8 8 7 6 7 7 8 7 6 7 6 5 5 4 4 4 4 4 4 4 4 4 5 5 6 6 7 7 6 7 7 7 8 8 8 9 10 11 10 10 11 11
Wind_Direction
261 203 171 177 192 206 217 228 228 203 158 164 159 154 152 150 151 153 159 160 157 155 154 148 141 134 128 123 118 115 108 103 96 78 62 27 357 335 321 313 309 301 300 300
250 184 176 186 196 205 215 225 243 271 272 148 147 140 145 154 159 163 166 162 156 154 151 147 141 134 127 121 119 116 113 110 106 78 43 1 324 310 303 299 297 300 301 300
208 161 156 215 208 208 214 218 222 233 237 214 127 143 154 160 164 165 161 156 155 152 147 141 135 130 126 122 117 113 112 112 106 66 0 323 310 306 301 301 304 307 304 305
144 146 207 237 194 199 214 221 219 226 222 211 172 131 111 133 149 149 147 147 144 139 131 126 121 119 116 116 116 118 121 121 114 64 325 316 309 307 307 308 308 305 304 304
203 214 243 226 193 191 205 231 219 220 208 142 112 81 45 49 111 125 127 129 126 123 120 117 117 118 118 118 122 125 122 113 99 10 316 309 307 307 308 308 306 301 299 299
234 222 237 88 57 360 143 247 248 209 178 148 132 139 159 100 93 98 104 110 114 114 114 115 118 122 125 129 132 127 118 110 69 308 304 301 303 306 305 305 299 300 300 298
205 237 281 81 39 40 158 228 340 19 139 143 136 127 123 107 99 101 105 109 112 114 116 120 124 125 126 127 123 118 115 129 288 301 303 300 300 297 298 299 300 301 301 302
181 212 244 158 137 120 142 50 34 74 102 102 101 104 107 107 108 110 112 113 115 116 115 116 120 123 122 120 118 120 138 218 284 300 303 305 300 298 300 302 302 303 307 310
189 204 157 112 95 86 111 106 90 95 110 116 114 114 114 112 114 116 117 116 117 120 118 114 115 121 123 122 123 130 154 288 307 311 303 300 300 301 303 300 300 307 312 313
178 171 149 117 103 102 106 103 99 111 116 118 120 121 120 120 121 120 119 122 126 126 125 120 111 103 115 122 125 125 36 328 318 310 305 305 300 296 297 300 303 305 307 308
172 129 127 152 147 120 102 97 96 95 103 116 120 123 125 127 128 128 127 126 130 133 133 133 128 119 119 123 118 86 2 329 315 309 309 307 300 294 301 289 299 310 304 303
197 177 166 169 148 124 116 113 111 109 102 104 116 122 124 126 129 131 131 129 129 129 130 133 133 132 129 122 109 71 343 323 319 318 314 308 306 307 308 311 315 317 318 317
103 114 113 122 123 119 120 117 113 111 113 111 109 116 120 123 127 128 130 132 132 131 130 131 131 132 133 128 112 54 318 310 310 312 309 307 309 311 312 315 316 318 321 323
98 96 98 115 118 115 113 110 105 99 96 100 103 106 111 115 120 127 133 133 127 124 127 131 133 137 135 123 108 337 310 308 307 296 301 307 308 306 308 314 318 318 321 322
76 93 123 113 106 109 111 112 107 103 101 95 97 105 114 121 124 125 122 121 121 123 129 131 136 142 127 114 92 322 312 303 298 299 302 300 300 302 305 308 311 314 316 321
88 91 106 112 118 121 120 117 116 116 114 111 107 107 110 115 114 114 119 127 132 141 144 142 147 139 118 103 41 320 306 306 310 300 293 295 297 303 307 307 309 311 314 318
128 130 131 133 132 127 121 118 123 123 119 117 115 111 108 109 111 117 124 128 128 134 137 140 138 119 107 99 356 313 310 311 312 308 295 295 298 298 300 304 307 308 309 314
136 139 145 143 137 124 111 107 112 114 115 117 118 117 120 126 134 141 139 125 112 112 126 129 118 103 87 28 336 321 310 299 296 293 292 293 300 299 303 304 306 308 311 316
122 124 124 121 119 116 114 112 109 107 110 116 118 120 119 118 124 133 133 131 136 147 153 121 106 87 34 334 349 329 305 296 293 291 293 307 313 303 303 305 308 310 313 317
106 108 106 102 101 108 111 110 108 106 108 114 113 110 106 104 108 117 122 120 110 106 103 94 81 49 30 0 348 312 292 288 292 299 304 303 302 304 306 309 312 313 315 315
110 109 106 104 98 93 99 105 109 107 103 103 108 112 111 105 104 108 109 103 84 79 78 73 58 47 28 343 329 305 294 296 304 306 305 305 305 306 308 311 313 314 313 315
113 110 108 107 103 92 80 86 97 102 98 93 93 100 104 102 99 91 80 85 88 68 56 42 45 16 343 335 316 303 304 307 307 304 302 302 304 307 308 310 310 311 313 316
107 107 107 106 106 99 84 76 82 89 91 90 91 94 96 95 90 97 93 71 68 45 34 22 5 345 337 339 318 313 313 311 306 302 299 299 301 304 306 308 309 312 313 313
103 101 102 103 104 99 90 82 84 86 85 79 73 75 85 89 72 62 77 69 48 33 21 354 348 341 342 340 317 311 306 302 298 293 292 295 299 304 307 308 309 310 310 311
102 101 101 101 98 100 107 107 98 94 90 85 73 63 59 67 84 74 62 50 27 23 8 351 345 342 342 315 308 304 301 297 298 302 301 307 307 307 306 306 308 310 309 308
97 94 88 89 102 115 118 114 108 105 104 97 83 70 67 65 69 64 50 34 15 4 359 337 328 328 318 306 301 299 298 302 307 308 305 305 306 307 307 308 308 306 304 304
95 96 95 90 86 93 100 103 104 99 99 104 98 81 72 64 58 46 32 18 3 348 331 322 317 308 302 300 299 297 298 301 304 306 308 307 306 305 304 303 302 301 300 301
Height
1388 1384 1388 1392 1396 1397 1400 1400 1403 1398 1399 1402 1402 1404 1408 1413 1418 1424 1430 1435 1440 1444 1449 1454 1458 1461 1463 1465 1468 1470 1471 1472 1472 1472 1471 1470 1469 1467 1465 1462 1459 1456 1452 1448
1386 1382 1385 1389 1391 1394 1396 1398 1399 1398 1397 1391 1394 1400 1406 1411 1416 1421 1427 1432 1437 1442 1447 1451 1454 1457 1460 1463 1465 1467 1469 1470 1470 1469 1469 1467 1466 1464 1461 1458 1455 1451 1447 1443
1389 1383 1386 1393 1387 1389 1392 1392 1396 1400 1397 1393 1397 1399 1403 1408 1413 1418 1424 1429 1434 1439 1444 1448 1452 1455 1457 1461 1464 1466 1467 1467 1467 1467 1466 1464 1463 1460 1458 1454 1451 1447 1443 1438
1390 1391 1403 1385 1372 1376 1382 1384 1387 1388 1390 1392 1395 1399 1402 1406 1411 1416 1422 1427 1433 1438 1442 1446 1450 1453 1456 1460 1462 1464 1464 1465 1465 1464 1463 1462 1460 1457 1454 1451 1447 1442 1438 1433
1395 1394 1389 1377 1374 1373 1379 1382 1379 1382 1386 1391 1394 1400 1405 1407 1410 1415 1420 1425 1431 1436 1440 1444 1448 1451 1455 1458 1460 1462 1462 1462 1462 1462 1461 1459 1457 1454 1450 1446 1442 1438 1433 1428
1396 1397 1396 1381 1375 1372 1377 1383 1375 1375 1380 1387 1392 1404 1408 1409 1411 1415 1420 1425 1430 1434 1438 1443 1447 1451 1454 1457 1458 1460 1460 1460 1460 1459 1458 1456 1453 1450 1447 1442 1438 1433 1429 1424
1397 1397 1388 1380 1376 1376 1388 1386 1378 1375 1377 1384 1389 1395 1403 1407 1412 1416 1421 1425 1430 1434 1438 1443 1447 1451 1453 1455 1457 1458 1458 1458 1458 1457 1455 1453 1450 1447 1443 1438 1434 1429 1424 1419
1395 1398 1394 1379 1378 1381 1383 1381 1380 1379 1381 1386 1391 1396 1402 1408 1413 1418 1422 1427 1431 1434 1439 1443 1447 1450 1452 1454 1455 1456 1456 1456 1455 1454 1452 1450 1446 1443 1439 1434 1429 1424 1419 1414
1383 1384 1378 1377 1378 1380 1380 1381 1382 1383 1386 1389 1394 1400 1406 1411 1416 1420 1424 1428 1432 1435 1439 1443 1447 1449 1450 1452 1453 1453 1454 1453 1453 1451 1449 1446 1443 1439 1434 1430 1425 1420 1415 1409
1374 1375 1376 1377 1378 1380 1381 1383 1385 1387 1390 1393 1397 1403 1408 1413 1418 1422 1426 1429 1433 1437 1440 1443 1446 1447 1449 1450 1451 1451 1451 1451 1450 1448 1446 1443 1439 1435 1430 1426 1421 1416 1411 1405
1370 1373 1376 1377 1378 1380 1382 1385 1388 1392 1395 1397 1401 1406 1410 1415 1419 1423 1427 1430 1434 1437 1439 1442 1444 1446 1447 1448 1449 1449 1449 1448 1447 1445 1442 1438 1435 1431 1427 1423 1419 1414 1409 1403
1367 1366 1370 1373 1377 1380 1383 1387 1390 1394 1398 1402 1405 1408 1413 1417 1420 1424 1427 1430 1433 1436 1438 1440 1442 1444 1445 1446 1447 1447 1447 1445 1444 1441 1438 1434 1429 1425 1422 1419 1415 1411 1406 1402
1361 1363 1366 1370 1376 1381 1384 1389 1393 1396 1400 1404 1408 1411 1414 1418 1421 1424 1427 1430 1432 1435 1437 1439 1441 1442 1444 1445 1445 1445 1444 1442 1440 1437 1433 1429 1425 1420 1414 1411 1408 1405 1401 1396
1362 1364 1370 1374 1377 1382 1386 1390 1395 1399 1403 1406 1409 1413 1416 1418 1421 1424 1426 1429 1432 1434 1436 1438 1440 1441 1442 1443 1443 1442 1441 1439 1436 1433 1430 1426 1422 1417 1412 1406 1401 1397 1394 1391
1364 1365 1369 1374 1378 1383 1387 1391 1396 1400 1404 1408 1411 1414 1416 1419 1421 1423 1426 1429 1431 1433 1435 1437 1438 1439 1440 1440 1440 1439 1438 1435 1432 1429 1426 1422 1417 1413 1409 1405 1400 1394 1388 1384
1364 1367 1370 1374 1379 1384 1388 1393 1396 1401 1405 1408 1411 1414 1416 1419 1421 1423 1426 1428 1430 1432 1434 1435 1437 1437 1438 1438 1437 1436 1434 1431 1428 1425 1421 1417 1413 1409 1405 1401 1396 1391 1386 1380
1363 1367 1371 1375 1380 1385 1390 1394 1398 1402 1406 1409 1412 1414 1417 1419 1421 1423 1425 1427 1429 1431 1433 1434 1435 1435 1435 1435 1434 1432 1430 1427 1424 1421 1417 1414 1410 1406 1402 1398 1393 1388 1383 1378
1363 1366 1369 1374 1380 1385 1391 1395 1399 1403 1406 1409 1412 1415 1417 1419 1421 1423 1425 1427 1428 1430 1431 1432 1433 1433 1433 1432 1430 1428 1426 1423 1420 1417 1413 1410 1406 1403 1399 1394 1389 1384 1378 1373
1364 1367 1372 1378 1383 1388 1392 1397 1401 1404 1407 1410 1413 1415 1417 1419 1420 1422 1424 1426 1427 1428 1429 1430 1431 1430 1430 1428 1427 1424 1422 1419 1415 1412 1410 1406 1403 1399 1395 1390 1385 1380 1374 1369
1366 1370 1375 1381 1386 1390 1395 1399 1402 1405 1408 1411 1413 1415 1417 1419 1420 1422 1423 1424 1426 1426 1427 1428 1428 1427 1426 1425 1423 1420 1418 1414 1411 1409 1406 1402 1398 1394 1390 1386 1381 1375 1370 1365
1369 1373 1378 1383 1388 1393 1397 1400 1403 1406 1409 1411 1413 1415 1417 1418 1419 1421 1422 1423 1424 1425 1426 1426 1425 1424 1423 1421 1419 1416 1413 1410 1408 1405 1401 1398 1394 1390 1385 1381 1376 1371 1366 1361
1372 1377 1381 1386 1390 1394 1398 1402 1404 1407 1409 1411 1413 1415 1416 1417 1418 1419 1420 1422 1423 1424 1424 1423 1422 1421 1419 1417 1415 1412 1409 1407 1404 1400 1397 1393 1389 1385 1380 1376 1371 1367 1362 1358
1376 1381 1385 1389 1393 1396 1399 1402 1405 1407 1409 1411 1413 1414 1415 1416 1417 1419 1420 1421 1422 1422 1421 1421 1419 1417 1415 1413 1411 1408 1405 1402 1399 1396 1392 1389 1385 1380 1376 1372 1367 1363 1358 1354
1380 1384 1387 1391 1394 1397 1400 1403 1405 1407 1409 1411 1412 1414 1415 1416 1417 1418 1419 1420 1420 1420 1419 1418 1416 1414 1412 1409 1407 1404 1401 1398 1395 1391 1388 1384 1380 1376 1372 1367 1363 1359 1355 1350
1383 1386 1389 1393 1395 1398 1401 1403 1406 1408 1409 1411 1412 1413 1415 1416 1417 1418 1419 1419 1418 1417 1416 1414 1412 1410 1408 1405 1403 1400 1397 1394 1390 1387 1383 1379 1375 1371 1367 1363 1359 1355 1351 1347
1385 1388 1391 1394 1397 1399 1402 1404 1406 1407 1409 1411 1412 1414 1415 1416 1417 1417 1417 1417 1416 1415 1413 1411 1409 1407 1404 1401 1398 1395 1392 1389 1386 1382 1378 1374 1370 1367 1363 1359 1355 1351 1348 1344
1387 1389 1392 1395 1397 1400 1402 1404 1406 1407 1409 1411 1412 1414 1415 1416 1416 1416 1415 1414 1413 1412 1410 1408 1405 1403 1400 1397 1394 1391 1388 1384 1380 1377 1373 1369 1366 1362 1359 1355 1351 1348 1344 1341